{"data":{"norad_id":53628,"epoch":"2026-05-25T00:20:48.963840Z","epoch_age_seconds":83993,"freshness":"FRESH","line1":"1 53628U 22104AS  26145.01445560  .00000053  00000+0  21399-4 0  9991","line2":"2 53628  53.2162 251.0464 0001138  87.1609 272.9514 15.08838080207281","mean_motion":15.0883808,"eccentricity":0.0001138,"inclination_deg":53.2162,"raan_deg":251.0464,"arg_perigee_deg":87.1609,"mean_anomaly_deg":272.9514,"bstar":2.1399e-5,"rev_number":20728,"period_min":95.437676122278,"perigee_km":538.9620021861,"apogee_km":540.53651309834,"semimajor_km":6917.8862576422,"source":"CELESTRAK","updated_at":"2026-05-25T13:38:17.480678Z"}}